Time,TemperatureF,DewpointF,PressureIn,WindDirection,WindDirectionDegrees,WindSpeedMPH,WindSpeedGustMPH,Humidity,HourlyPrecipIn,Conditions,Clouds,dailyrainin,SolarRadiationWatts/m^2,SoftwareType,DateUTC
2013-12-02 00:01:00,35.9,34.9,29.95,South,174,1.0,3.0,96,0.00,,,0.00,0,WxPro DR1,2013-12-02 05:01:00,
2013-12-02 00:06:00,35.9,34.9,29.95,South,174,0.0,2.0,96,0.01,,,0.01,0,WxPro DR1,2013-12-02 05:06:00,
2013-12-02 00:11:00,35.8,34.5,29.95,South,174,0.0,2.0,95,0.01,,,0.01,0,WxPro DR1,2013-12-02 05:11:00,
2013-12-02 00:16:00,35.7,34.5,29.95,South,174,0.0,2.0,95,0.01,,,0.01,0,WxPro DR1,2013-12-02 05:16:00,
2013-12-02 00:21:00,35.9,34.6,29.95,South,174,0.0,2.0,95,0.01,,,0.01,0,WxPro DR1,2013-12-02 05:21:00,
2013-12-02 00:26:00,36.0,34.9,29.95,South,174,2.0,3.0,96,0.01,,,0.01,0,WxPro DR1,2013-12-02 05:26:00,
2013-12-02 00:31:00,36.0,34.7,29.95,South,174,0.0,4.0,95,0.01,,,0.01,0,WxPro DR1,2013-12-02 05:31:00,
2013-12-02 00:36:00,36.1,34.8,29.95,South,174,0.0,4.0,95,0.01,,,0.01,0,WxPro DR1,2013-12-02 05:36:00,
2013-12-02 00:41:00,36.1,34.8,29.94,South,174,0.0,2.0,95,0.01,,,0.01,0,WxPro DR1,2013-12-02 05:41:00,
2013-12-02 00:46:00,36.0,34.7,29.94,South,174,0.0,2.0,95,0.01,,,0.01,0,WxPro DR1,2013-12-02 05:46:00,
2013-12-02 00:51:00,36.1,34.8,29.94,South,174,0.0,3.0,95,0.01,,,0.01,0,WxPro DR1,2013-12-02 05:51:00,
2013-12-02 00:56:00,36.2,34.9,29.94,South,174,0.0,3.0,95,0.01,,,0.01,0,WxPro DR1,2013-12-02 05:56:00,
2013-12-02 01:01:00,36.3,35.0,29.93,South,174,0.0,3.0,95,0.02,,,0.02,0,WxPro DR1,2013-12-02 06:01:00,
2013-12-02 01:06:00,36.3,35.0,29.94,South,174,0.0,3.0,95,0.01,,,0.02,0,WxPro DR1,2013-12-02 06:06:00,
2013-12-02 01:11:00,36.4,35.1,29.93,South,174,0.0,4.0,95,0.01,,,0.02,0,WxPro DR1,2013-12-02 06:11:00,
2013-12-02 01:16:00,36.4,34.8,29.94,South,174,0.0,4.0,94,0.01,,,0.02,0,WxPro DR1,2013-12-02 06:16:00,
2013-12-02 01:21:00,36.3,34.8,29.93,South,174,0.0,2.0,94,0.01,,,0.02,0,WxPro DR1,2013-12-02 06:21:00,
2013-12-02 01:26:00,36.3,34.8,29.93,South,174,0.0,2.0,94,0.01,,,0.02,0,WxPro DR1,2013-12-02 06:26:00,
2013-12-02 01:31:00,36.2,34.7,29.93,South,174,0.0,2.0,94,0.01,,,0.02,0,WxPro DR1,2013-12-02 06:31:00,
2013-12-02 01:36:00,36.2,34.6,29.93,South,174,0.0,2.0,94,0.01,,,0.02,0,WxPro DR1,2013-12-02 06:36:00,
2013-12-02 01:41:00,36.1,34.5,29.93,South,174,0.0,2.0,94,0.01,,,0.02,0,WxPro DR1,2013-12-02 06:41:00,
2013-12-02 01:46:00,36.0,34.4,29.93,South,174,0.0,1.0,94,0.01,,,0.02,0,WxPro DR1,2013-12-02 06:46:00,
2013-12-02 01:51:00,35.9,34.3,29.93,South,174,0.0,1.0,94,0.01,,,0.02,0,WxPro DR1,2013-12-02 06:51:00,
2013-12-02 01:56:00,35.9,34.4,29.94,South,174,0.0,1.0,94,0.01,,,0.02,0,WxPro DR1,2013-12-02 06:56:00,
2013-12-02 02:01:00,36.0,34.4,29.94,South,174,1.0,1.0,94,0.00,,,0.02,0,WxPro DR1,2013-12-02 07:01:00,
2013-12-02 02:06:00,36.0,34.4,29.94,South,174,0.0,1.0,94,0.01,,,0.03,0,WxPro DR1,2013-12-02 07:06:00,
2013-12-02 02:11:00,36.0,34.4,29.94,South,174,0.0,1.0,94,0.01,,,0.03,0,WxPro DR1,2013-12-02 07:11:00,
2013-12-02 02:16:00,36.1,34.5,29.94,South,174,0.0,2.0,94,0.01,,,0.03,0,WxPro DR1,2013-12-02 07:16:00,
2013-12-02 02:21:00,36.1,34.5,29.94,South,174,0.0,2.0,94,0.01,,,0.03,0,WxPro DR1,2013-12-02 07:21:00,
2013-12-02 02:26:00,36.1,34.5,29.94,South,174,0.0,0.0,94,0.01,,,0.03,0,WxPro DR1,2013-12-02 07:26:00,
2013-12-02 02:31:00,36.1,34.5,29.94,South,174,0.0,1.0,94,0.01,,,0.03,0,WxPro DR1,2013-12-02 07:31:00,
2013-12-02 02:36:00,36.1,34.5,29.94,South,174,0.0,1.0,94,0.01,,,0.03,0,WxPro DR1,2013-12-02 07:36:00,
2013-12-02 02:41:00,36.0,34.5,29.93,South,174,0.0,2.0,94,0.01,,,0.03,0,WxPro DR1,2013-12-02 07:41:00,
2013-12-02 02:46:00,35.9,34.4,29.93,South,174,0.0,2.0,94,0.01,,,0.03,0,WxPro DR1,2013-12-02 07:46:00,
2013-12-02 02:51:00,35.8,34.2,29.93,South,174,0.0,0.0,94,0.01,,,0.03,0,WxPro DR1,2013-12-02 07:51:00,
2013-12-02 02:56:00,35.7,34.2,29.93,South,174,0.0,2.0,94,0.01,,,0.03,0,WxPro DR1,2013-12-02 07:56:00,
2013-12-02 03:01:00,35.7,34.1,29.93,South,174,0.0,2.0,94,0.01,,,0.03,0,WxPro DR1,2013-12-02 08:01:00,
2013-12-02 03:06:00,35.6,34.0,29.92,South,174,0.0,1.0,94,0.00,,,0.03,0,WxPro DR1,2013-12-02 08:06:00,
2013-12-02 03:11:00,35.6,34.0,29.92,South,174,0.0,1.0,94,0.01,,,0.04,0,WxPro DR1,2013-12-02 08:11:00,
2013-12-02 03:16:00,35.5,34.0,29.92,South,174,0.0,1.0,94,0.01,,,0.04,0,WxPro DR1,2013-12-02 08:16:00,
2013-12-02 03:21:00,35.5,33.9,29.91,South,174,0.0,1.0,94,0.01,,,0.04,0,WxPro DR1,2013-12-02 08:21:00,
2013-12-02 03:26:00,35.4,33.9,29.92,South,174,0.0,1.0,94,0.01,,,0.04,0,WxPro DR1,2013-12-02 08:26:00,
2013-12-02 03:31:00,35.4,33.8,29.91,South,174,0.0,0.0,94,0.01,,,0.04,0,WxPro DR1,2013-12-02 08:31:00,
2013-12-02 03:36:00,35.4,34.1,29.91,South,174,0.0,0.0,95,0.01,,,0.04,0,WxPro DR1,2013-12-02 08:36:00,
2013-12-02 03:41:00,35.4,34.0,29.91,South,174,0.0,0.0,95,0.01,,,0.04,0,WxPro DR1,2013-12-02 08:41:00,
2013-12-02 03:46:00,35.4,34.1,29.91,South,174,0.0,0.0,95,0.01,,,0.04,0,WxPro DR1,2013-12-02 08:46:00,
2013-12-02 03:51:00,35.5,34.2,29.91,South,174,0.0,0.0,95,0.01,,,0.04,0,WxPro DR1,2013-12-02 08:51:00,
2013-12-02 03:56:00,35.5,34.2,29.91,South,174,0.0,2.0,95,0.01,,,0.04,0,WxPro DR1,2013-12-02 08:56:00,
2013-12-02 04:01:00,35.6,34.0,29.91,South,174,0.0,2.0,94,0.01,,,0.04,0,WxPro DR1,2013-12-02 09:01:00,
2013-12-02 04:06:00,35.6,34.0,29.91,South,174,1.0,1.0,94,0.01,,,0.04,0,WxPro DR1,2013-12-02 09:06:00,
2013-12-02 04:11:00,35.6,34.0,29.91,South,174,0.0,1.0,94,0.00,,,0.04,0,WxPro DR1,2013-12-02 09:11:00,
2013-12-02 04:16:00,35.5,34.0,29.91,South,174,0.0,1.0,94,0.00,,,0.04,0,WxPro DR1,2013-12-02 09:16:00,
2013-12-02 04:21:00,35.5,34.0,29.91,South,174,0.0,1.0,94,0.00,,,0.04,0,WxPro DR1,2013-12-02 09:21:00,
2013-12-02 04:26:00,35.5,34.0,29.91,South,174,0.0,1.0,94,0.00,,,0.04,0,WxPro DR1,2013-12-02 09:26:00,
2013-12-02 04:31:00,35.5,34.0,29.91,South,174,0.0,1.0,94,0.00,,,0.04,0,WxPro DR1,2013-12-02 09:31:00,
2013-12-02 04:36:00,35.6,34.0,29.91,South,174,0.0,0.0,94,0.00,,,0.04,0,WxPro DR1,2013-12-02 09:36:00,
2013-12-02 04:41:00,35.6,34.0,29.91,South,174,0.0,0.0,94,0.00,,,0.04,0,WxPro DR1,2013-12-02 09:41:00,
2013-12-02 04:46:00,35.5,34.0,29.91,South,174,0.0,0.0,94,0.00,,,0.04,0,WxPro DR1,2013-12-02 09:46:00,
2013-12-02 04:51:00,35.5,34.0,29.91,South,174,0.0,0.0,94,0.00,,,0.04,0,WxPro DR1,2013-12-02 09:51:00,
2013-12-02 04:56:00,35.5,34.0,29.90,South,174,0.0,0.0,94,0.00,,,0.04,0,WxPro DR1,2013-12-02 09:56:00,
2013-12-02 05:01:00,35.5,34.0,29.91,South,174,2.0,2.0,94,0.00,,,0.04,0,WxPro DR1,2013-12-02 10:01:00,
2013-12-02 05:06:00,35.6,34.0,29.91,South,174,0.0,2.0,94,0.01,,,0.05,0,WxPro DR1,2013-12-02 10:06:00,
2013-12-02 05:11:00,35.6,34.0,29.91,South,174,0.0,2.0,94,0.01,,,0.05,0,WxPro DR1,2013-12-02 10:11:00,
2013-12-02 05:16:00,35.6,34.0,29.91,South,174,0.0,0.0,94,0.01,,,0.05,0,WxPro DR1,2013-12-02 10:16:00,
2013-12-02 05:21:00,35.6,34.0,29.91,South,174,0.0,0.0,94,0.01,,,0.05,0,WxPro DR1,2013-12-02 10:21:00,
2013-12-02 05:26:00,35.6,34.0,29.91,South,174,0.0,0.0,94,0.01,,,0.05,0,WxPro DR1,2013-12-02 10:26:00,
2013-12-02 05:31:00,35.6,34.0,29.91,South,173,0.0,0.0,94,0.01,,,0.05,0,WxPro DR1,2013-12-02 10:31:00,
2013-12-02 05:36:00,35.6,34.0,29.91,South,174,0.0,0.0,94,0.01,,,0.05,0,WxPro DR1,2013-12-02 10:36:00,
2013-12-02 05:41:00,35.6,34.0,29.90,South,174,0.0,1.0,94,0.01,,,0.05,0,WxPro DR1,2013-12-02 10:41:00,
2013-12-02 05:46:00,35.6,34.0,29.91,South,174,0.0,1.0,94,0.01,,,0.05,0,WxPro DR1,2013-12-02 10:46:00,
2013-12-02 05:51:00,35.6,34.0,29.91,South,174,0.0,0.0,94,0.01,,,0.05,0,WxPro DR1,2013-12-02 10:51:00,
2013-12-02 05:56:00,35.6,34.0,29.91,South,174,0.0,0.0,94,0.01,,,0.05,0,WxPro DR1,2013-12-02 10:56:00,
2013-12-02 06:01:00,35.6,34.0,29.91,South,174,0.0,0.0,94,0.01,,,0.05,0,WxPro DR1,2013-12-02 11:01:00,
2013-12-02 06:06:00,35.6,34.0,29.91,South,174,0.0,1.0,94,0.00,,,0.05,0,WxPro DR1,2013-12-02 11:06:00,
2013-12-02 06:11:00,35.5,34.0,29.91,South,174,0.0,1.0,94,0.00,,,0.05,0,WxPro DR1,2013-12-02 11:11:00,
2013-12-02 06:16:00,35.6,34.1,29.91,South,174,0.0,1.0,94,0.00,,,0.05,0,WxPro DR1,2013-12-02 11:16:00,
2013-12-02 06:21:00,35.8,34.2,29.91,South,174,0.0,1.0,94,0.00,,,0.05,0,WxPro DR1,2013-12-02 11:21:00,
2013-12-02 06:26:00,35.9,34.1,29.91,South,174,0.0,1.0,93,0.00,,,0.05,0,WxPro DR1,2013-12-02 11:26:00,
2013-12-02 06:31:00,35.9,34.1,29.91,South,174,1.0,2.0,93,0.00,,,0.05,0,WxPro DR1,2013-12-02 11:31:00,
2013-12-02 06:36:00,36.1,34.2,29.91,South,174,0.0,2.0,93,0.00,,,0.05,0,WxPro DR1,2013-12-02 11:36:00,
2013-12-02 06:41:00,36.2,34.3,29.91,South,174,0.0,1.0,93,0.00,,,0.05,0,WxPro DR1,2013-12-02 11:41:00,
2013-12-02 06:46:00,36.2,34.4,29.91,South,174,0.0,2.0,93,0.00,,,0.05,0,WxPro DR1,2013-12-02 11:46:00,
2013-12-02 06:51:00,36.2,34.1,29.90,South,174,1.0,2.0,92,0.00,,,0.05,0,WxPro DR1,2013-12-02 11:51:00,
2013-12-02 06:56:00,36.1,34.0,29.90,South,174,0.0,1.0,92,0.01,,,0.06,0,WxPro DR1,2013-12-02 11:56:00,
2013-12-02 07:01:00,36.1,34.0,29.91,South,174,0.0,1.0,92,0.01,,,0.06,0,WxPro DR1,2013-12-02 12:01:00,
2013-12-02 07:06:00,36.0,34.0,29.91,South,174,0.0,1.0,92,0.01,,,0.06,0,WxPro DR1,2013-12-02 12:06:00,
2013-12-02 07:11:00,36.0,33.9,29.91,South,174,0.0,1.0,92,0.01,,,0.06,0,WxPro DR1,2013-12-02 12:11:00,
2013-12-02 07:16:00,36.0,33.9,29.91,South,174,0.0,0.0,92,0.01,,,0.06,0,WxPro DR1,2013-12-02 12:16:00,
2013-12-02 07:21:00,35.9,33.8,29.91,South,174,0.0,0.0,92,0.01,,,0.06,0,WxPro DR1,2013-12-02 12:21:00,
2013-12-02 07:26:00,35.9,33.8,29.91,South,172,0.0,0.0,92,0.01,,,0.06,0,WxPro DR1,2013-12-02 12:26:00,
2013-12-02 07:31:00,35.8,33.7,29.91,South,174,0.0,0.0,92,0.01,,,0.06,0,WxPro DR1,2013-12-02 12:31:00,
2013-12-02 07:36:00,35.8,33.7,29.91,South,174,0.0,0.0,92,0.01,,,0.06,0,WxPro DR1,2013-12-02 12:36:00,
2013-12-02 07:41:00,35.8,33.7,29.91,South,174,0.0,2.0,92,0.01,,,0.06,5,WxPro DR1,2013-12-02 12:41:00,
2013-12-02 07:46:00,35.8,33.7,29.91,South,174,0.0,2.0,92,0.01,,,0.06,7,WxPro DR1,2013-12-02 12:46:00,
2013-12-02 07:51:00,35.8,33.7,29.91,South,174,0.0,0.0,92,0.01,,,0.06,11,WxPro DR1,2013-12-02 12:51:00,
2013-12-02 07:56:00,35.8,33.8,29.91,South,174,0.0,0.0,92,0.00,,,0.06,12,WxPro DR1,2013-12-02 12:56:00,
2013-12-02 08:01:00,35.9,33.8,29.91,South,174,0.0,1.0,92,0.00,,,0.06,14,WxPro DR1,2013-12-02 13:01:00,
2013-12-02 08:06:00,35.9,33.8,29.91,South,174,0.0,1.0,92,0.00,,,0.06,16,WxPro DR1,2013-12-02 13:06:00,
2013-12-02 08:11:00,36.0,33.9,29.91,South,174,0.0,1.0,92,0.00,,,0.06,18,WxPro DR1,2013-12-02 13:11:00,
2013-12-02 08:16:00,36.0,33.9,29.91,South,174,0.0,1.0,92,0.00,,,0.06,19,WxPro DR1,2013-12-02 13:16:00,
2013-12-02 08:21:00,36.0,33.9,29.91,South,174,0.0,1.0,92,0.00,,,0.06,19,WxPro DR1,2013-12-02 13:21:00,
2013-12-02 08:26:00,36.0,33.9,29.91,South,174,0.0,0.0,92,0.00,,,0.06,19,WxPro DR1,2013-12-02 13:26:00,
2013-12-02 08:31:00,36.0,33.9,29.91,South,174,0.0,0.0,92,0.00,,,0.06,19,WxPro DR1,2013-12-02 13:31:00,
2013-12-02 08:36:00,36.1,34.0,29.91,South,174,0.0,0.0,92,0.00,,,0.06,23,WxPro DR1,2013-12-02 13:36:00,
2013-12-02 08:41:00,36.2,34.1,29.91,South,174,0.0,0.0,92,0.00,,,0.06,25,WxPro DR1,2013-12-02 13:41:00,
2013-12-02 08:46:00,36.3,34.2,29.91,South,174,0.0,0.0,92,0.00,,,0.06,33,WxPro DR1,2013-12-02 13:46:00,
2013-12-02 08:51:00,36.4,34.0,29.91,South,173,0.0,2.0,91,0.01,,,0.07,44,WxPro DR1,2013-12-02 13:51:00,
2013-12-02 08:56:00,36.5,34.1,29.91,South,174,0.0,2.0,91,0.01,,,0.07,53,WxPro DR1,2013-12-02 13:56:00,
2013-12-02 09:01:00,36.6,34.2,29.91,South,174,0.0,1.0,91,0.01,,,0.07,54,WxPro DR1,2013-12-02 14:01:00,
2013-12-02 09:06:00,36.8,34.4,29.91,South,174,0.0,1.0,91,0.01,,,0.07,58,WxPro DR1,2013-12-02 14:06:00,
2013-12-02 09:11:00,37.1,34.4,29.91,South,174,0.0,2.0,90,0.01,,,0.07,63,WxPro DR1,2013-12-02 14:11:00,
2013-12-02 09:16:00,37.3,34.7,29.91,South,174,0.0,2.0,90,0.01,,,0.07,69,WxPro DR1,2013-12-02 14:16:00,
2013-12-02 09:21:00,37.6,34.6,29.91,South,174,0.0,3.0,89,0.01,,,0.07,83,WxPro DR1,2013-12-02 14:21:00,
2013-12-02 09:26:00,37.8,34.9,29.91,South,174,0.0,4.0,89,0.01,,,0.07,88,WxPro DR1,2013-12-02 14:26:00,
2013-12-02 09:31:00,38.0,34.8,29.91,South,174,0.0,4.0,88,0.02,,,0.08,77,WxPro DR1,2013-12-02 14:31:00,
2013-12-02 09:36:00,38.1,34.6,29.91,South,174,0.0,3.0,87,0.02,,,0.08,98,WxPro DR1,2013-12-02 14:36:00,
2013-12-02 09:41:00,38.2,34.7,29.91,South,174,0.0,2.0,87,0.02,,,0.08,95,WxPro DR1,2013-12-02 14:41:00,
2013-12-02 09:46:00,38.2,34.7,29.90,South,174,2.0,2.0,87,0.02,,,0.08,69,WxPro DR1,2013-12-02 14:46:00,
2013-12-02 09:51:00,38.2,34.7,29.89,South,174,0.0,3.0,87,0.01,,,0.08,81,WxPro DR1,2013-12-02 14:51:00,
2013-12-02 09:56:00,38.1,34.6,29.89,South,174,0.0,3.0,87,0.01,,,0.08,90,WxPro DR1,2013-12-02 14:56:00,
2013-12-02 10:01:00,38.3,34.8,29.90,South,174,0.0,1.0,87,0.01,,,0.08,90,WxPro DR1,2013-12-02 15:01:00,
2013-12-02 10:06:00,38.5,35.0,29.90,South,174,1.0,2.0,87,0.02,,,0.09,102,WxPro DR1,2013-12-02 15:06:00,
2013-12-02 10:11:00,38.7,35.0,29.90,South,174,0.0,2.0,87,0.02,,,0.09,100,WxPro DR1,2013-12-02 15:11:00,
2013-12-02 10:16:00,38.9,35.1,29.90,South,174,1.0,3.0,86,0.02,,,0.09,95,WxPro DR1,2013-12-02 15:16:00,
2013-12-02 10:21:00,39.0,34.9,29.90,South,174,0.0,3.0,85,0.02,,,0.09,90,WxPro DR1,2013-12-02 15:21:00,
2013-12-02 10:26:00,39.0,34.9,29.91,South,174,2.0,3.0,85,0.03,,,0.10,90,WxPro DR1,2013-12-02 15:26:00,
2013-12-02 10:31:00,38.9,34.8,29.90,South,174,0.0,3.0,85,0.02,,,0.10,93,WxPro DR1,2013-12-02 15:31:00,
2013-12-02 10:36:00,38.9,34.8,29.90,South,174,1.0,3.0,85,0.02,,,0.10,90,WxPro DR1,2013-12-02 15:36:00,
2013-12-02 10:41:00,38.9,34.8,29.90,South,174,0.0,3.0,85,0.02,,,0.10,86,WxPro DR1,2013-12-02 15:41:00,
2013-12-02 10:46:00,38.9,34.8,29.90,South,174,0.0,3.0,85,0.02,,,0.10,86,WxPro DR1,2013-12-02 15:46:00,
2013-12-02 10:51:00,38.7,34.6,29.90,South,174,3.0,3.0,85,0.02,,,0.10,79,WxPro DR1,2013-12-02 15:51:00,
2013-12-02 10:56:00,38.7,34.6,29.90,South,174,1.0,3.0,85,0.02,,,0.10,81,WxPro DR1,2013-12-02 15:56:00,
2013-12-02 11:01:00,38.7,34.6,29.90,South,172,0.0,3.0,85,0.03,,,0.11,90,WxPro DR1,2013-12-02 16:01:00,
2013-12-02 11:06:00,38.8,34.8,29.90,South,174,2.0,4.0,85,0.02,,,0.11,88,WxPro DR1,2013-12-02 16:06:00,
2013-12-02 11:11:00,39.0,34.9,29.90,South,174,0.0,4.0,85,0.02,,,0.11,88,WxPro DR1,2013-12-02 16:11:00,
2013-12-02 11:16:00,39.2,35.0,29.90,South,174,0.0,3.0,85,0.02,,,0.11,84,WxPro DR1,2013-12-02 16:16:00,
2013-12-02 11:21:00,39.2,35.1,29.89,South,174,0.0,3.0,85,0.02,,,0.11,90,WxPro DR1,2013-12-02 16:21:00,
2013-12-02 11:26:00,39.3,35.1,29.89,South,174,0.0,3.0,85,0.01,,,0.11,95,WxPro DR1,2013-12-02 16:26:00,
2013-12-02 11:31:00,39.2,35.1,29.89,South,174,0.0,3.0,85,0.02,,,0.12,97,WxPro DR1,2013-12-02 16:31:00,
2013-12-02 11:36:00,39.2,35.1,29.89,South,174,0.0,2.0,85,0.02,,,0.12,104,WxPro DR1,2013-12-02 16:36:00,
2013-12-02 11:41:00,39.3,35.2,29.89,South,174,0.0,2.0,85,0.02,,,0.12,104,WxPro DR1,2013-12-02 16:41:00,
2013-12-02 11:46:00,39.5,35.0,29.88,South,174,0.0,2.0,84,0.02,,,0.12,90,WxPro DR1,2013-12-02 16:46:00,
2013-12-02 11:51:00,39.6,35.2,29.88,South,174,0.0,2.0,84,0.02,,,0.12,97,WxPro DR1,2013-12-02 16:51:00,
2013-12-02 11:56:00,39.7,35.0,29.88,South,174,1.0,2.0,83,0.02,,,0.12,111,WxPro DR1,2013-12-02 16:56:00,
2013-12-02 12:01:00,39.8,35.1,29.88,South,174,0.0,3.0,83,0.01,,,0.12,111,WxPro DR1,2013-12-02 17:01:00,
2013-12-02 12:06:00,40.0,35.2,29.88,South,174,0.0,3.0,83,0.02,,,0.13,123,WxPro DR1,2013-12-02 17:06:00,
2013-12-02 12:11:00,40.0,35.2,29.88,South,174,0.0,2.0,83,0.02,,,0.13,123,WxPro DR1,2013-12-02 17:11:00,
2013-12-02 12:16:00,40.1,35.0,29.88,South,174,0.0,2.0,82,0.02,,,0.13,127,WxPro DR1,2013-12-02 17:16:00,
2013-12-02 12:21:00,40.1,35.0,29.87,South,174,0.0,2.0,82,0.02,,,0.13,121,WxPro DR1,2013-12-02 17:21:00,
2013-12-02 12:26:00,40.1,35.3,29.87,South,174,1.0,2.0,83,0.02,,,0.13,125,WxPro DR1,2013-12-02 17:26:00,
2013-12-02 12:31:00,40.1,35.0,29.87,South,174,0.0,2.0,82,0.01,,,0.13,130,WxPro DR1,2013-12-02 17:31:00,
2013-12-02 12:36:00,40.1,35.1,29.87,South,174,0.0,2.0,82,0.02,,,0.14,142,WxPro DR1,2013-12-02 17:36:00,
2013-12-02 12:41:00,40.2,35.2,29.87,South,174,0.0,0.0,82,0.02,,,0.14,146,WxPro DR1,2013-12-02 17:41:00,
2013-12-02 12:46:00,40.5,35.1,29.87,South,174,2.0,3.0,81,0.02,,,0.14,141,WxPro DR1,2013-12-02 17:46:00,
2013-12-02 12:51:00,40.7,35.0,29.87,South,174,0.0,3.0,80,0.02,,,0.14,142,WxPro DR1,2013-12-02 17:51:00,
2013-12-02 12:56:00,40.9,35.1,29.87,South,174,0.0,3.0,79,0.02,,,0.14,127,WxPro DR1,2013-12-02 17:56:00,
2013-12-02 13:01:00,41.0,35.0,29.86,South,174,0.0,3.0,79,0.02,,,0.14,135,WxPro DR1,2013-12-02 18:01:00,
2013-12-02 13:06:00,41.0,35.0,29.86,South,174,0.0,3.0,79,0.01,,,0.14,135,WxPro DR1,2013-12-02 18:06:00,
2013-12-02 13:11:00,41.0,36.2,29.86,South,174,0.0,3.0,83,0.02,,,0.15,104,WxPro DR1,2013-12-02 18:11:00,
2013-12-02 13:16:00,41.0,34.7,29.86,South,174,0.0,2.0,78,0.02,,,0.15,100,WxPro DR1,2013-12-02 18:16:00,
2013-12-02 13:21:00,41.0,34.7,29.86,South,174,0.0,3.0,78,0.02,,,0.15,123,WxPro DR1,2013-12-02 18:21:00,
2013-12-02 13:26:00,41.0,35.4,29.86,South,174,0.0,3.0,80,0.02,,,0.15,125,WxPro DR1,2013-12-02 18:26:00,
2013-12-02 13:31:00,41.0,35.0,29.86,South,174,0.0,2.0,79,0.02,,,0.15,134,WxPro DR1,2013-12-02 18:31:00,
2013-12-02 13:36:00,41.0,35.0,29.86,South,174,1.0,2.0,79,0.01,,,0.15,121,WxPro DR1,2013-12-02 18:36:00,
2013-12-02 13:41:00,40.9,34.9,29.86,South,174,0.0,2.0,79,0.01,,,0.15,104,WxPro DR1,2013-12-02 18:41:00,
2013-12-02 13:46:00,41.0,35.0,29.86,South,174,1.0,2.0,79,0.02,,,0.16,100,WxPro DR1,2013-12-02 18:46:00,
2013-12-02 13:51:00,41.1,35.1,29.85,South,174,0.0,2.0,79,0.02,,,0.16,91,WxPro DR1,2013-12-02 18:51:00,
2013-12-02 13:56:00,41.1,35.1,29.85,South,174,0.0,1.0,79,0.02,,,0.16,109,WxPro DR1,2013-12-02 18:56:00,
2013-12-02 14:01:00,41.2,34.9,29.85,South,174,0.0,0.0,78,0.02,,,0.16,123,WxPro DR1,2013-12-02 19:01:00,
2013-12-02 14:06:00,41.4,35.0,29.85,South,174,0.0,1.0,78,0.02,,,0.16,137,WxPro DR1,2013-12-02 19:06:00,
2013-12-02 14:11:00,41.5,35.2,29.85,South,174,0.0,3.0,78,0.01,,,0.16,141,WxPro DR1,2013-12-02 19:11:00,
2013-12-02 14:16:00,41.5,35.2,29.85,South,174,0.0,3.0,78,0.01,,,0.16,142,WxPro DR1,2013-12-02 19:16:00,
2013-12-02 14:21:00,41.5,35.1,29.85,South,174,0.0,1.0,78,0.01,,,0.16,121,WxPro DR1,2013-12-02 19:21:00,
2013-12-02 14:26:00,41.3,35.0,29.85,South,174,0.0,0.0,78,0.01,,,0.16,88,WxPro DR1,2013-12-02 19:26:00,
2013-12-02 14:31:00,41.2,34.8,29.85,South,174,0.0,0.0,78,0.01,,,0.16,74,WxPro DR1,2013-12-02 19:31:00,
2013-12-02 14:36:00,41.2,34.5,29.85,South,174,0.0,0.0,77,0.01,,,0.16,74,WxPro DR1,2013-12-02 19:36:00,
2013-12-02 14:41:00,41.3,34.6,29.85,South,174,1.0,1.0,77,0.01,,,0.16,53,WxPro DR1,2013-12-02 19:41:00,
2013-12-02 14:46:00,41.3,34.6,29.85,South,174,0.0,1.0,77,0.00,,,0.16,56,WxPro DR1,2013-12-02 19:46:00,
2013-12-02 14:51:00,41.3,34.7,29.85,South,174,0.0,1.0,77,0.01,,,0.17,46,WxPro DR1,2013-12-02 19:51:00,
2013-12-02 14:56:00,41.3,34.6,29.85,South,174,0.0,0.0,77,0.01,,,0.17,33,WxPro DR1,2013-12-02 19:56:00,
2013-12-02 15:01:00,41.3,34.6,29.85,South,174,0.0,1.0,77,0.01,,,0.17,21,WxPro DR1,2013-12-02 20:01:00,
2013-12-02 15:06:00,41.2,34.6,29.85,South,174,0.0,1.0,77,0.01,,,0.17,32,WxPro DR1,2013-12-02 20:06:00,
2013-12-02 15:11:00,41.1,34.8,29.85,South,174,0.0,1.0,78,0.01,,,0.17,35,WxPro DR1,2013-12-02 20:11:00,
2013-12-02 15:16:00,41.0,34.7,29.86,South,174,0.0,1.0,78,0.01,,,0.17,42,WxPro DR1,2013-12-02 20:16:00,
2013-12-02 15:21:00,40.9,34.9,29.86,South,174,0.0,1.0,79,0.01,,,0.17,49,WxPro DR1,2013-12-02 20:21:00,
2013-12-02 15:26:00,40.8,35.0,29.86,South,174,0.0,0.0,80,0.01,,,0.17,42,WxPro DR1,2013-12-02 20:26:00,
2013-12-02 15:31:00,40.7,35.0,29.86,South,174,0.0,1.0,80,0.01,,,0.17,35,WxPro DR1,2013-12-02 20:31:00,
2013-12-02 15:36:00,40.6,34.9,29.86,South,174,0.0,1.0,80,0.01,,,0.17,26,WxPro DR1,2013-12-02 20:36:00,
2013-12-02 15:41:00,40.5,34.8,29.86,South,174,0.0,1.0,80,0.01,,,0.17,21,WxPro DR1,2013-12-02 20:41:00,
2013-12-02 15:46:00,40.5,34.8,29.86,South,174,0.0,1.0,80,0.01,,,0.17,21,WxPro DR1,2013-12-02 20:46:00,
2013-12-02 15:51:00,40.4,35.0,29.86,South,174,0.0,1.0,81,0.00,,,0.17,19,WxPro DR1,2013-12-02 20:51:00,
2013-12-02 15:56:00,40.2,34.9,29.86,South,174,0.0,1.0,81,0.00,,,0.17,16,WxPro DR1,2013-12-02 20:56:00,
2013-12-02 16:01:00,40.1,34.8,29.86,South,174,0.0,0.0,81,0.00,,,0.17,21,WxPro DR1,2013-12-02 21:01:00,
2013-12-02 16:06:00,40.0,34.6,29.86,South,174,0.0,0.0,81,0.00,,,0.17,26,WxPro DR1,2013-12-02 21:06:00,
2013-12-02 16:11:00,39.8,34.8,29.86,South,174,0.0,0.0,82,0.00,,,0.17,18,WxPro DR1,2013-12-02 21:11:00,
2013-12-02 16:16:00,39.8,34.7,29.86,South,174,1.0,1.0,82,0.00,,,0.17,16,WxPro DR1,2013-12-02 21:16:00,
2013-12-02 16:21:00,39.7,34.9,29.86,South,174,0.0,1.0,83,0.00,,,0.17,11,WxPro DR1,2013-12-02 21:21:00,
2013-12-02 16:26:00,39.5,34.8,29.86,South,174,0.0,2.0,83,0.00,,,0.17,7,WxPro DR1,2013-12-02 21:26:00,
2013-12-02 16:31:00,39.3,34.6,29.87,South,174,0.0,2.0,83,0.00,,,0.17,0,WxPro DR1,2013-12-02 21:31:00,
2013-12-02 16:36:00,39.2,34.8,29.87,South,174,0.0,2.0,84,0.00,,,0.17,0,WxPro DR1,2013-12-02 21:36:00,
2013-12-02 16:41:00,39.0,34.6,29.87,South,174,0.0,2.0,84,0.00,,,0.17,0,WxPro DR1,2013-12-02 21:41:00,
2013-12-02 16:46:00,38.8,34.4,29.87,South,174,0.0,3.0,84,0.00,,,0.17,0,WxPro DR1,2013-12-02 21:46:00,
2013-12-02 16:51:00,38.8,34.4,29.87,South,174,0.0,3.0,84,0.00,,,0.17,0,WxPro DR1,2013-12-02 21:51:00,
2013-12-02 16:56:00,38.8,34.4,29.87,South,174,0.0,3.0,84,0.00,,,0.17,0,WxPro DR1,2013-12-02 21:56:00,
2013-12-02 17:01:00,38.7,34.3,29.87,South,174,0.0,2.0,84,0.00,,,0.17,0,WxPro DR1,2013-12-02 22:01:00,
2013-12-02 17:06:00,38.5,34.2,29.87,South,174,0.0,1.0,84,0.00,,,0.17,0,WxPro DR1,2013-12-02 22:06:00,
2013-12-02 17:11:00,38.4,34.0,29.88,South,174,0.0,0.0,84,0.00,,,0.17,0,WxPro DR1,2013-12-02 22:11:00,
2013-12-02 17:16:00,38.2,34.1,29.87,South,174,0.0,0.0,85,0.00,,,0.17,0,WxPro DR1,2013-12-02 22:16:00,
2013-12-02 17:21:00,38.2,34.1,29.88,South,174,0.0,3.0,85,0.00,,,0.17,0,WxPro DR1,2013-12-02 22:21:00,
2013-12-02 17:26:00,38.2,34.1,29.88,South,174,2.0,4.0,85,0.00,,,0.17,0,WxPro DR1,2013-12-02 22:26:00,
2013-12-02 17:31:00,38.2,34.1,29.88,South,174,0.0,4.0,85,0.00,,,0.17,0,WxPro DR1,2013-12-02 22:31:00,
2013-12-02 17:36:00,38.2,34.1,29.88,South,174,0.0,2.0,85,0.00,,,0.17,0,WxPro DR1,2013-12-02 22:36:00,
2013-12-02 17:41:00,38.1,34.3,29.88,South,174,2.0,2.0,86,0.00,,,0.17,0,WxPro DR1,2013-12-02 22:41:00,
2013-12-02 17:46:00,38.0,34.2,29.88,South,174,0.0,2.0,86,0.00,,,0.17,0,WxPro DR1,2013-12-02 22:46:00,
2013-12-02 17:51:00,38.0,34.2,29.88,South,174,0.0,1.0,86,0.00,,,0.17,0,WxPro DR1,2013-12-02 22:51:00,
2013-12-02 17:56:00,37.9,34.1,29.88,South,174,0.0,0.0,86,0.00,,,0.17,0,WxPro DR1,2013-12-02 22:56:00,
2013-12-02 18:01:00,37.8,33.9,29.88,South,174,0.0,0.0,86,0.00,,,0.17,0,WxPro DR1,2013-12-02 23:01:00,
2013-12-02 18:06:00,37.6,34.0,29.89,South,174,0.0,0.0,87,0.00,,,0.17,0,WxPro DR1,2013-12-02 23:06:00,
2013-12-02 18:11:00,37.3,33.8,29.89,South,174,0.0,0.0,87,0.00,,,0.17,0,WxPro DR1,2013-12-02 23:11:00,
2013-12-02 18:16:00,37.2,34.0,29.89,South,174,0.0,0.0,88,0.00,,,0.17,0,WxPro DR1,2013-12-02 23:16:00,
2013-12-02 18:21:00,37.0,33.8,29.89,South,174,0.0,0.0,88,0.00,,,0.17,0,WxPro DR1,2013-12-02 23:21:00,
2013-12-02 18:26:00,36.9,33.7,29.89,South,174,0.0,0.0,88,0.00,,,0.17,0,WxPro DR1,2013-12-02 23:26:00,
2013-12-02 18:31:00,36.8,33.6,29.89,South,174,0.0,0.0,88,0.00,,,0.17,0,WxPro DR1,2013-12-02 23:31:00,
2013-12-02 18:36:00,36.7,33.7,29.88,South,174,0.0,0.0,89,0.00,,,0.17,0,WxPro DR1,2013-12-02 23:36:00,
2013-12-02 18:41:00,36.6,33.7,29.89,South,174,0.0,0.0,89,0.00,,,0.17,0,WxPro DR1,2013-12-02 23:41:00,
2013-12-02 18:46:00,36.5,33.6,29.89,South,174,0.0,0.0,89,0.00,,,0.17,0,WxPro DR1,2013-12-02 23:46:00,
2013-12-02 18:51:00,36.4,33.5,29.89,South,174,0.0,0.0,89,0.00,,,0.17,0,WxPro DR1,2013-12-02 23:51:00,
2013-12-02 18:56:00,36.3,33.7,29.89,South,173,0.0,0.0,90,0.00,,,0.17,0,WxPro DR1,2013-12-02 23:56:00,
2013-12-02 19:01:00,36.3,33.7,29.89,South,174,0.0,0.0,90,0.00,,,0.17,0,WxPro DR1,2013-12-03 00:01:00,
2013-12-02 19:06:00,36.4,33.7,29.89,South,174,0.0,0.0,90,0.00,,,0.17,0,WxPro DR1,2013-12-03 00:06:00,
2013-12-02 19:11:00,36.4,33.8,29.90,South,174,0.0,0.0,90,0.00,,,0.17,0,WxPro DR1,2013-12-03 00:11:00,
2013-12-02 19:16:00,36.4,33.7,29.90,South,174,0.0,0.0,90,0.00,,,0.17,0,WxPro DR1,2013-12-03 00:16:00,
2013-12-02 19:21:00,36.3,33.7,29.90,South,174,0.0,1.0,90,0.00,,,0.17,0,WxPro DR1,2013-12-03 00:21:00,
2013-12-02 19:26:00,36.3,33.7,29.90,South,174,0.0,1.0,90,0.00,,,0.17,0,WxPro DR1,2013-12-03 00:26:00,
2013-12-02 19:31:00,36.3,33.7,29.90,South,174,0.0,0.0,90,0.00,,,0.17,0,WxPro DR1,2013-12-03 00:31:00,
2013-12-02 19:36:00,36.2,33.6,29.90,South,174,0.0,0.0,90,0.00,,,0.17,0,WxPro DR1,2013-12-03 00:36:00,
2013-12-02 19:41:00,36.2,33.8,29.90,South,174,0.0,0.0,91,0.00,,,0.17,0,WxPro DR1,2013-12-03 00:41:00,
2013-12-02 19:46:00,36.3,33.9,29.90,South,174,0.0,1.0,91,0.00,,,0.17,0,WxPro DR1,2013-12-03 00:46:00,
2013-12-02 19:51:00,36.3,34.0,29.90,South,174,0.0,1.0,91,0.00,,,0.17,0,WxPro DR1,2013-12-03 00:51:00,
2013-12-02 19:56:00,36.4,34.0,29.90,South,174,0.0,0.0,91,0.00,,,0.17,0,WxPro DR1,2013-12-03 00:56:00,
2013-12-02 20:01:00,36.4,34.0,29.90,South,174,0.0,1.0,91,0.00,,,0.17,0,WxPro DR1,2013-12-03 01:01:00,
2013-12-02 20:06:00,36.4,34.0,29.90,South,174,0.0,2.0,91,0.00,,,0.17,0,WxPro DR1,2013-12-03 01:06:00,
2013-12-02 20:11:00,36.4,34.0,29.90,South,174,0.0,2.0,91,0.00,,,0.17,0,WxPro DR1,2013-12-03 01:11:00,
2013-12-02 20:16:00,36.5,34.1,29.90,South,174,0.0,2.0,91,0.00,,,0.17,0,WxPro DR1,2013-12-03 01:16:00,
2013-12-02 20:21:00,36.5,34.1,29.90,South,174,0.0,2.0,91,0.00,,,0.17,0,WxPro DR1,2013-12-03 01:21:00,
2013-12-02 20:26:00,36.4,34.0,29.90,South,174,0.0,1.0,91,0.00,,,0.17,0,WxPro DR1,2013-12-03 01:26:00,
2013-12-02 20:31:00,36.4,34.0,29.91,South,174,1.0,1.0,91,0.00,,,0.17,0,WxPro DR1,2013-12-03 01:31:00,
2013-12-02 20:36:00,36.4,34.0,29.91,South,174,0.0,1.0,91,0.00,,,0.17,0,WxPro DR1,2013-12-03 01:36:00,
2013-12-02 20:41:00,36.4,34.0,29.91,South,174,0.0,3.0,91,0.00,,,0.17,0,WxPro DR1,2013-12-03 01:41:00,
2013-12-02 20:46:00,36.3,34.0,29.91,South,174,0.0,3.0,91,0.00,,,0.17,0,WxPro DR1,2013-12-03 01:46:00,
2013-12-02 20:51:00,36.3,33.9,29.90,SW,236,0.0,4.0,91,0.00,,,0.17,0,WxPro DR1,2013-12-03 01:51:00,
2013-12-02 20:56:00,36.3,33.9,29.91,SW,236,0.0,4.0,91,0.00,,,0.17,0,WxPro DR1,2013-12-03 01:56:00,
2013-12-02 21:01:00,36.2,33.8,29.90,SW,236,0.0,3.0,91,0.00,,,0.17,0,WxPro DR1,2013-12-03 02:01:00,
2013-12-02 21:06:00,36.2,33.8,29.90,SW,236,2.0,3.0,91,0.00,,,0.17,0,WxPro DR1,2013-12-03 02:06:00,
2013-12-02 21:11:00,36.1,33.7,29.90,SW,236,0.0,2.0,91,0.00,,,0.17,0,WxPro DR1,2013-12-03 02:11:00,
2013-12-02 21:16:00,36.0,33.6,29.90,SW,236,0.0,3.0,91,0.00,,,0.17,0,WxPro DR1,2013-12-03 02:16:00,
2013-12-02 21:21:00,35.9,33.6,29.90,SW,236,1.0,3.0,91,0.00,,,0.17,0,WxPro DR1,2013-12-03 02:21:00,
2013-12-02 21:26:00,35.9,33.5,29.90,WSW,240,0.0,4.0,91,0.00,,,0.17,0,WxPro DR1,2013-12-03 02:26:00,
2013-12-02 21:31:00,35.8,33.5,29.90,WSW,242,0.0,4.0,91,0.00,,,0.17,0,WxPro DR1,2013-12-03 02:31:00,
2013-12-02 21:36:00,35.8,33.4,29.90,WSW,245,0.0,5.0,91,0.00,,,0.17,0,WxPro DR1,2013-12-03 02:36:00,
2013-12-02 21:41:00,35.7,33.3,29.90,WSW,245,0.0,5.0,91,0.00,,,0.17,0,WxPro DR1,2013-12-03 02:41:00,
2013-12-02 21:46:00,35.7,33.3,29.90,WSW,245,2.0,4.0,91,0.00,,,0.17,0,WxPro DR1,2013-12-03 02:46:00,
2013-12-02 21:51:00,35.6,33.2,29.90,WSW,245,0.0,4.0,91,0.00,,,0.17,0,WxPro DR1,2013-12-03 02:51:00,
2013-12-02 21:56:00,35.5,33.2,29.90,WSW,245,0.0,3.0,91,0.00,,,0.17,0,WxPro DR1,2013-12-03 02:56:00,
2013-12-02 22:01:00,35.5,33.1,29.91,WSW,253,1.0,5.0,91,0.00,,,0.17,0,WxPro DR1,2013-12-03 03:01:00,
2013-12-02 22:06:00,35.4,33.3,29.90,WSW,253,0.0,5.0,92,0.00,,,0.17,0,WxPro DR1,2013-12-03 03:06:00,
2013-12-02 22:11:00,35.3,33.2,29.90,WSW,253,0.0,3.0,92,0.00,,,0.17,0,WxPro DR1,2013-12-03 03:11:00,
2013-12-02 22:16:00,35.3,33.2,29.91,WSW,253,1.0,4.0,92,0.00,,,0.17,0,WxPro DR1,2013-12-03 03:16:00,
2013-12-02 22:21:00,35.2,33.1,29.90,WSW,253,1.0,4.0,92,0.00,,,0.17,0,WxPro DR1,2013-12-03 03:21:00,
2013-12-02 22:26:00,35.1,33.0,29.90,WSW,256,1.0,5.0,92,0.00,,,0.17,0,WxPro DR1,2013-12-03 03:26:00,
2013-12-02 22:31:00,35.0,32.9,29.90,WSW,256,1.0,5.0,92,0.00,,,0.17,0,WxPro DR1,2013-12-03 03:31:00,
2013-12-02 22:36:00,34.9,32.8,29.90,WSW,256,0.0,4.0,92,0.00,,,0.17,0,WxPro DR1,2013-12-03 03:36:00,
2013-12-02 22:41:00,34.8,32.7,29.90,WSW,256,0.0,4.0,92,0.00,,,0.17,0,WxPro DR1,2013-12-03 03:41:00,
2013-12-02 22:46:00,34.6,32.5,29.90,WSW,257,1.0,2.0,92,0.00,,,0.17,0,WxPro DR1,2013-12-03 03:46:00,
2013-12-02 22:51:00,34.4,32.3,29.90,WSW,256,0.0,2.0,92,0.00,,,0.17,0,WxPro DR1,2013-12-03 03:51:00,
2013-12-02 22:56:00,34.3,32.5,29.90,WSW,256,0.0,2.0,93,0.00,,,0.17,0,WxPro DR1,2013-12-03 03:56:00,
2013-12-02 23:01:00,34.2,32.3,29.90,WSW,256,0.0,2.0,93,0.00,,,0.17,0,WxPro DR1,2013-12-03 04:01:00,
2013-12-02 23:06:00,33.9,32.1,29.90,WSW,257,0.0,2.0,93,0.00,,,0.17,0,WxPro DR1,2013-12-03 04:06:00,
2013-12-02 23:11:00,33.8,32.0,29.90,WSW,257,0.0,1.0,93,0.00,,,0.17,0,WxPro DR1,2013-12-03 04:11:00,
2013-12-02 23:16:00,33.6,31.8,29.90,WSW,256,0.0,0.0,93,0.00,,,0.17,0,WxPro DR1,2013-12-03 04:16:00,
2013-12-02 23:21:00,33.3,31.5,29.90,WSW,256,0.0,0.0,93,0.00,,,0.17,0,WxPro DR1,2013-12-03 04:21:00,
2013-12-02 23:26:00,33.2,31.4,29.90,WSW,256,0.0,0.0,93,0.00,,,0.17,0,WxPro DR1,2013-12-03 04:26:00,
2013-12-02 23:31:00,33.1,31.3,29.91,WSW,256,0.0,0.0,93,0.00,,,0.17,0,WxPro DR1,2013-12-03 04:31:00,
2013-12-02 23:36:00,32.9,31.1,29.91,WSW,257,0.0,0.0,93,0.00,,,0.17,0,WxPro DR1,2013-12-03 04:36:00,
2013-12-02 23:41:00,32.7,30.9,29.90,WSW,257,0.0,0.0,93,0.00,,,0.17,0,WxPro DR1,2013-12-03 04:41:00,
2013-12-02 23:46:00,32.5,30.8,29.90,WSW,257,0.0,1.0,93,0.00,,,0.17,0,WxPro DR1,2013-12-03 04:46:00,
2013-12-02 23:51:00,32.3,30.8,29.90,WSW,256,0.0,2.0,94,0.00,,,0.17,0,WxPro DR1,2013-12-03 04:51:00,
2013-12-02 23:56:00,32.2,30.7,29.90,WSW,256,0.0,2.0,94,0.00,,,0.17,0,WxPro DR1,2013-12-03 04:56:00,